Location: Piotrkow Trybunalski
(51.4000°N, 19.6830°E)
Time: 22:31:30
(UTC+01:00)

ISS - Pass Details

Date: 02 February 2020
Orbit: 415 x 423 km, 51.6° (Epoch: 25 February)

Event Time Altitude Azimuth Distance (km) Brightness Sun altitude
Rises 19:18:51 0° 284° (WNW) 2,381 1.4 -26.1°
Reaches altitude 10° 19:21:07 10° 273° (W) 1,512 0.1 -26.4°
Enters shadow 19:22:55 23° 247° (WSW) 959 -1.4 -26.7°
